Regional Weather Roundup
Issued by NWS

Home | Current Version | Previous Version | Graphics & Text | Print | Product List | Glossary Off
Versions: 1 2 3 4 5 6 7 8 9 10 11 12 13 14 15 16 17 18 19 20 21 22 23 24 25 26 27 28 29 30 31 32 33 34 35 36 37 38 39 40 41 42 43 44 45 46 47 48 49 50

000
ASUS43 KBIS 270331
RWRND
NORTH DAKOTA REGIONAL WEATHER ROUNDUP
NATIONAL WEATHER SERVICE EASTERN NORTH DAKOTA/GRAND FORKS ND
1000 PM CDT FRI MAY 26 2017

  NOTE: "FAIR" INDICATES FEW OR NO CLOUDS BELOW 12,000 FEET WITH NO
  SIGNIFICANT WEATHER AND/OR OBSTRUCTIONS TO VISIBILITY.

NDZ001>003-009>011-017-270400-
...NORTHWEST NORTH DAKOTA...

CITY           SKY/WX    TMP DP  RH WIND       PRES   REMARKS
WILLISTON      FAIR      56  39  53 W9        29.83R
MINOT          FAIR      58  35  42 W7        29.76R
MINOT AFB      FAIR      55  35  47 W8        29.75R
$$

NDZ018>021-031>035-040>046-270400-
...SOUTHWEST NORTH DAKOTA...

CITY           SKY/WX    TMP DP  RH WIND       PRES   REMARKS
BISMARCK       FAIR      57  37  47 SW5       29.83R
DICKINSON      FAIR      50  33  52 W7        29.85R
GARRISON         N/A     58  33  39 W8        29.80R
HETTINGER      FAIR      52  36  54 NW5       29.90R
$$

NDZ004>008-012>016-024-026-027-054-270400-
...NORTHEAST NORTH DAKOTA...

CITY           SKY/WX    TMP DP  RH WIND       PRES   REMARKS
GRAND FORKS    FAIR      58  43  57 W8        29.75R
GRAND FORKS AF FAIR      55  42  62 W6        29.76R
DEVILS LAKE    FAIR      57  44  62 SW7       29.78R
$$

NDZ022-023-025-028>030-036>039-047>053-270400-
...SOUTHEAST NORTH DAKOTA...

CITY           SKY/WX    TMP DP  RH WIND       PRES   REMARKS
JAMESTOWN      FAIR      56  41  57 SW5       29.81R
FARGO          FAIR      59  43  55 W8        29.80R
WAHPETON       FAIR      54  41  62 W6        29.82S
$$



USA.gov is the U.S. government's official web portal to all federal, state and local government web resources and services.